Location: Amber Place
(27.9751°N, 82.3711°W)
Time: 14:34:56
(UTC+00:00)

N. Korean satellite - Pass Details

Date: 30 September 2021
Orbit: 450 x 495 km, 97.3° (Epoch: 19 October)

Event Time Altitude Azimuth Distance (km) Brightness Sun altitude
Rises 10:38:53 0° 10° (N) 2,549 10.4 -10.3°
Reaches altitude 10° 10:40:57 10° 10° (N) 1,673 9.4 -9.9°
Maximum altitude 10:44:33 84° 281° (W) 497 6.5 -9.1°
Drops below altitude 10° 10:48:10 10° 194° (SSW) 1,681 9.2 -8.3°
Sets 10:50:14 0° 193° (SSW) 2,562 10.1 -7.8°
